owner,sensor,date,latitude,longitude,sea_surface_height_above_sea_level,qcFlag 
COMPS,ioos:station:USF.COMPS:ANC:1,2008-12-01T00:00:00Z,28.1930,-82.7890,-0.022,1111122 
COMPS,ioos:station:USF.COMPS:ANC:1,2008-12-01T00:06:00Z,28.1930,-82.7890,-0.012,1111122 
COMPS,ioos:station:USF.COMPS:ANC:1,2008-12-01T00:12:00Z,28.1930,-82.7890,-0.018,1111122 
COMPS,ioos:station:USF.COMPS:ANC:1,2008-12-01T00:18:00Z,28.1930,-82.7890,0.011,1111122 
COMPS,ioos:station:USF.COMPS:ANC:1,2008-12-01T00:24:00Z,28.1930,-82.7890,0.058,1111122 
COMPS,ioos:station:USF.COMPS:ANC:1,2008-12-01T00:30:00Z,28.1930,-82.7890,0.054,1111122 
COMPS,ioos:station:USF.COMPS:ANC:1,2008-12-01T00:36:00Z,28.1930,-82.7890,0.031,1111122 
COMPS,ioos:station:USF.COMPS:ANC:1,2008-12-01T00:42:00Z,28.1930,-82.7890,0.056,1111122 
COMPS,ioos:station:USF.COMPS:ANC:1,2008-12-01T00:48:00Z,28.1930,-82.7890,0.082,1111122 
COMPS,ioos:station:USF.COMPS:ANC:1,2008-12-01T00:54:00Z,28.1930,-82.7890,0.112,1111122 
COMPS,ioos:station:USF.COMPS:ANC:1,2008-12-01T01:00:00Z,28.1930,-82.7890,0.172,1111122 
COMPS,ioos:station:USF.COMPS:ANC:1,2008-12-01T01:06:00Z,28.1930,-82.7890,0.171,1111122 
COMPS,ioos:station:USF.COMPS:ANC:1,2008-12-01T01:12:00Z,28.1930,-82.7890,0.162,1111122 
COMPS,ioos:station:USF.COMPS:ANC:1,2008-12-01T01:18:00Z,28.1930,-82.7890,0.184,1111122 
COMPS,ioos:station:USF.COMPS:ANC:1,2008-12-01T01:24:00Z,28.1930,-82.7890,0.192,1111122 
COMPS,ioos:station:USF.COMPS:ANC:1,2008-12-01T01:30:00Z,28.1930,-82.7890,0.217,1111122 
COMPS,ioos:station:USF.COMPS:ANC:1,2008-12-01T01:36:00Z,28.1930,-82.7890,0.228,1111122 
COMPS,ioos:station:USF.COMPS:ANC:1,2008-12-01T01:42:00Z,28.1930,-82.7890,0.23,1111122 
COMPS,ioos:station:USF.COMPS:ANC:1,2008-12-01T01:48:00Z,28.1930,-82.7890,0.229,1111122 
COMPS,ioos:station:USF.COMPS:ANC:1,2008-12-01T01:54:00Z,28.1930,-82.7890,0.255,1111122 
COMPS,ioos:station:USF.COMPS:ANC:1,2008-12-01T02:00:00Z,28.1930,-82.7890,0.291,1111122 
COMPS,ioos:station:USF.COMPS:ANC:1,2008-12-01T02:06:00Z,28.1930,-82.7890,0.269,1111122 
COMPS,ioos:station:USF.COMPS:ANC:1,2008-12-01T02:12:00Z,28.1930,-82.7890,0.257,1111122 
COMPS,ioos:station:USF.COMPS:ANC:1,2008-12-01T02:18:00Z,28.1930,-82.7890,0.272,1111122 
COMPS,ioos:station:USF.COMPS:ANC:1,2008-12-01T02:24:00Z,28.1930,-82.7890,0.287,1111122 
COMPS,ioos:station:USF.COMPS:ANC:1,2008-12-01T02:30:00Z,28.1930,-82.7890,0.287,1111122 
COMPS,ioos:station:USF.COMPS:ANC:1,2008-12-01T02:36:00Z,28.1930,-82.7890,0.322,1111122 
COMPS,ioos:station:USF.COMPS:ANC:1,2008-12-01T02:42:00Z,28.1930,-82.7890,0.333,1111122 
COMPS,ioos:station:USF.COMPS:ANC:1,2008-12-01T02:48:00Z,28.1930,-82.7890,0.338,1111122 
COMPS,ioos:station:USF.COMPS:ANC:1,2008-12-01T02:54:00Z,28.1930,-82.7890,0.343,1111122 
COMPS,ioos:station:USF.COMPS:ANC:1,2008-12-01T03:00:00Z,28.1930,-82.7890,0.36,1111122 
COMPS,ioos:station:USF.COMPS:ANC:1,2008-12-01T03:06:00Z,28.1930,-82.7890,0.356,1111122 
COMPS,ioos:station:USF.COMPS:ANC:1,2008-12-01T03:12:00Z,28.1930,-82.7890,0.32,1111122 
COMPS,ioos:station:USF.COMPS:ANC:1,2008-12-01T03:18:00Z,28.1930,-82.7890,0.346,1111122 
COMPS,ioos:station:USF.COMPS:ANC:1,2008-12-01T03:24:00Z,28.1930,-82.7890,0.387,1111122 
COMPS,ioos:station:USF.COMPS:ANC:1,2008-12-01T03:30:00Z,28.1930,-82.7890,0.412,1111122 
COMPS,ioos:station:USF.COMPS:ANC:1,2008-12-01T03:36:00Z,28.1930,-82.7890,0.409,1111122 
COMPS,ioos:station:USF.COMPS:ANC:1,2008-12-01T03:42:00Z,28.1930,-82.7890,0.395,1111122 
COMPS,ioos:station:USF.COMPS:ANC:1,2008-12-01T03:48:00Z,28.1930,-82.7890,0.399,1111122 
COMPS,ioos:station:USF.COMPS:ANC:1,2008-12-01T03:54:00Z,28.1930,-82.7890,0.422,1111122 
COMPS,ioos:station:USF.COMPS:ANC:1,2008-12-01T04:00:00Z,28.1930,-82.7890,0.459,1111122 
COMPS,ioos:station:USF.COMPS:ANC:1,2008-12-01T04:06:00Z,28.1930,-82.7890,0.462,1111122 
COMPS,ioos:station:USF.COMPS:ANC:1,2008-12-01T04:12:00Z,28.1930,-82.7890,0.444,1111122 
COMPS,ioos:station:USF.COMPS:ANC:1,2008-12-01T04:18:00Z,28.1930,-82.7890,0.448,1111122 
COMPS,ioos:station:USF.COMPS:ANC:1,2008-12-01T04:24:00Z,28.1930,-82.7890,0.483,1111122 
COMPS,ioos:station:USF.COMPS:ANC:1,2008-12-01T04:30:00Z,28.1930,-82.7890,0.479,1111122 
COMPS,ioos:station:USF.COMPS:ANC:1,2008-12-01T04:36:00Z,28.1930,-82.7890,0.462,1111122 
COMPS,ioos:station:USF.COMPS:ANC:1,2008-12-01T04:42:00Z,28.1930,-82.7890,0.477,1111122 
COMPS,ioos:station:USF.COMPS:ANC:1,2008-12-01T04:48:00Z,28.1930,-82.7890,0.486,1111122 
COMPS,ioos:station:USF.COMPS:ANC:1,2008-12-01T04:54:00Z,28.1930,-82.7890,0.48,1111122 
COMPS,ioos:station:USF.COMPS:ANC:1,2008-12-01T05:00:00Z,28.1930,-82.7890,0.479,1111122 
COMPS,ioos:station:USF.COMPS:ANC:1,2008-12-01T05:06:00Z,28.1930,-82.7890,0.481,1111122 
COMPS,ioos:station:USF.COMPS:ANC:1,2008-12-01T05:12:00Z,28.1930,-82.7890,0.483,1111122 
COMPS,ioos:station:USF.COMPS:ANC:1,2008-12-01T05:18:00Z,28.1930,-82.7890,0.485,1111122 
COMPS,ioos:station:USF.COMPS:ANC:1,2008-12-01T05:24:00Z,28.1930,-82.7890,0.49,1111122 
COMPS,ioos:station:USF.COMPS:ANC:1,2008-12-01T05:30:00Z,28.1930,-82.7890,0.488,1111122 
COMPS,ioos:station:USF.COMPS:ANC:1,2008-12-01T05:36:00Z,28.1930,-82.7890,0.497,1111122 
COMPS,ioos:station:USF.COMPS:ANC:1,2008-12-01T05:42:00Z,28.1930,-82.7890,0.501,1111122 
COMPS,ioos:station:USF.COMPS:ANC:1,2008-12-01T05:48:00Z,28.1930,-82.7890,0.495,1111122 
COMPS,ioos:station:USF.COMPS:ANC:1,2008-12-01T05:54:00Z,28.1930,-82.7890,0.508,1111122 
COMPS,ioos:station:USF.COMPS:ANC:1,2008-12-01T06:00:00Z,28.1930,-82.7890,0.521,1111122 
COMPS,ioos:station:USF.COMPS:ANC:1,2008-12-01T06:06:00Z,28.1930,-82.7890,0.523,1111122 
COMPS,ioos:station:USF.COMPS:ANC:1,2008-12-01T06:12:00Z,28.1930,-82.7890,0.509,1111122 
COMPS,ioos:station:USF.COMPS:ANC:1,2008-12-01T06:18:00Z,28.1930,-82.7890,0.513,1111122 
COMPS,ioos:station:USF.COMPS:ANC:1,2008-12-01T06:24:00Z,28.1930,-82.7890,0.506,1111122 
COMPS,ioos:station:USF.COMPS:ANC:1,2008-12-01T06:30:00Z,28.1930,-82.7890,0.482,1111122 
COMPS,ioos:station:USF.COMPS:ANC:1,2008-12-01T06:36:00Z,28.1930,-82.7890,0.47,1111122 
COMPS,ioos:station:USF.COMPS:ANC:1,2008-12-01T06:42:00Z,28.1930,-82.7890,0.465,1111122 
COMPS,ioos:station:USF.COMPS:ANC:1,2008-12-01T06:48:00Z,28.1930,-82.7890,0.451,1111122 
COMPS,ioos:station:USF.COMPS:ANC:1,2008-12-01T06:54:00Z,28.1930,-82.7890,0.414,1111122 
COMPS,ioos:station:USF.COMPS:ANC:1,2008-12-01T07:00:00Z,28.1930,-82.7890,0.406,1111122 
COMPS,ioos:station:USF.COMPS:ANC:1,2008-12-01T07:06:00Z,28.1930,-82.7890,0.402,1111122 
COMPS,ioos:station:USF.COMPS:ANC:1,2008-12-01T07:12:00Z,28.1930,-82.7890,0.379,1111122 
COMPS,ioos:station:USF.COMPS:ANC:1,2008-12-01T07:18:00Z,28.1930,-82.7890,0.363,1111122 
COMPS,ioos:station:USF.COMPS:ANC:1,2008-12-01T07:24:00Z,28.1930,-82.7890,0.353,1111122 
COMPS,ioos:station:USF.COMPS:ANC:1,2008-12-01T07:30:00Z,28.1930,-82.7890,0.342,1111122 
COMPS,ioos:station:USF.COMPS:ANC:1,2008-12-01T07:36:00Z,28.1930,-82.7890,0.338,1111122 
COMPS,ioos:station:USF.COMPS:ANC:1,2008-12-01T07:42:00Z,28.1930,-82.7890,0.32,1111122 
COMPS,ioos:station:USF.COMPS:ANC:1,2008-12-01T07:48:00Z,28.1930,-82.7890,0.29,1111122 
COMPS,ioos:station:USF.COMPS:ANC:1,2008-12-01T07:54:00Z,28.1930,-82.7890,0.278,1111122 
COMPS,ioos:station:USF.COMPS:ANC:1,2008-12-01T08:00:00Z,28.1930,-82.7890,0.278,1111122 
COMPS,ioos:station:USF.COMPS:ANC:1,2008-12-01T08:06:00Z,28.1930,-82.7890,0.276,1111122 
COMPS,ioos:station:USF.COMPS:ANC:1,2008-12-01T08:12:00Z,28.1930,-82.7890,0.274,1111122 
COMPS,ioos:station:USF.COMPS:ANC:1,2008-12-01T08:18:00Z,28.1930,-82.7890,0.272,1111122 
COMPS,ioos:station:USF.COMPS:ANC:1,2008-12-01T08:24:00Z,28.1930,-82.7890,0.271,1111122 
COMPS,ioos:station:USF.COMPS:ANC:1,2008-12-01T08:30:00Z,28.1930,-82.7890,0.269,1111122 
COMPS,ioos:station:USF.COMPS:ANC:1,2008-12-01T08:36:00Z,28.1930,-82.7890,0.267,1111122 
COMPS,ioos:station:USF.COMPS:ANC:1,2008-12-01T08:42:00Z,28.1930,-82.7890,0.276,1111122 
COMPS,ioos:station:USF.COMPS:ANC:1,2008-12-01T08:48:00Z,28.1930,-82.7890,0.27,1111122 
COMPS,ioos:station:USF.COMPS:ANC:1,2008-12-01T08:54:00Z,28.1930,-82.7890,0.246,1111122 
COMPS,ioos:station:USF.COMPS:ANC:1,2008-12-01T09:00:00Z,28.1930,-82.7890,0.242,1111122 
COMPS,ioos:station:USF.COMPS:ANC:1,2008-12-01T09:06:00Z,28.1930,-82.7890,0.234,1111122 
COMPS,ioos:station:USF.COMPS:ANC:1,2008-12-01T09:12:00Z,28.1930,-82.7890,0.215,1111122 
COMPS,ioos:station:USF.COMPS:ANC:1,2008-12-01T09:18:00Z,28.1930,-82.7890,0.187,1111122 
COMPS,ioos:station:USF.COMPS:ANC:1,2008-12-01T09:24:00Z,28.1930,-82.7890,0.166,1111122 
COMPS,ioos:station:USF.COMPS:ANC:1,2008-12-01T09:30:00Z,28.1930,-82.7890,0.15,1111122 
COMPS,ioos:station:USF.COMPS:ANC:1,2008-12-01T09:36:00Z,28.1930,-82.7890,0.127,1111122 
COMPS,ioos:station:USF.COMPS:ANC:1,2008-12-01T09:42:00Z,28.1930,-82.7890,0.103,1111122 
COMPS,ioos:station:USF.COMPS:ANC:1,2008-12-01T09:48:00Z,28.1930,-82.7890,0.094,1111122 
COMPS,ioos:station:USF.COMPS:ANC:1,2008-12-01T09:54:00Z,28.1930,-82.7890,0.08,1111122 
COMPS,ioos:station:USF.COMPS:ANC:1,2008-12-01T10:00:00Z,28.1930,-82.7890,0.062,1111122 
COMPS,ioos:station:USF.COMPS:ANC:1,2008-12-01T10:06:00Z,28.1930,-82.7890,0.052,1111122 
COMPS,ioos:station:USF.COMPS:ANC:1,2008-12-01T10:12:00Z,28.1930,-82.7890,0.03,1111122 
COMPS,ioos:station:USF.COMPS:ANC:1,2008-12-01T10:18:00Z,28.1930,-82.7890,-0.002,1111122 
COMPS,ioos:station:USF.COMPS:ANC:1,2008-12-01T10:24:00Z,28.1930,-82.7890,-0.027,1111122 
COMPS,ioos:station:USF.COMPS:ANC:1,2008-12-01T10:30:00Z,28.1930,-82.7890,-0.046,1111122 
COMPS,ioos:station:USF.COMPS:ANC:1,2008-12-01T10:36:00Z,28.1930,-82.7890,-0.06,1111122 
COMPS,ioos:station:USF.COMPS:ANC:1,2008-12-01T10:42:00Z,28.1930,-82.7890,-0.072,1111122 
COMPS,ioos:station:USF.COMPS:ANC:1,2008-12-01T10:48:00Z,28.1930,-82.7890,-0.093,1111122 
COMPS,ioos:station:USF.COMPS:ANC:1,2008-12-01T10:54:00Z,28.1930,-82.7890,-0.119,1111122 
COMPS,ioos:station:USF.COMPS:ANC:1,2008-12-01T11:00:00Z,28.1930,-82.7890,-0.145,1111122 
COMPS,ioos:station:USF.COMPS:ANC:1,2008-12-01T11:06:00Z,28.1930,-82.7890,-0.164,1111122 
COMPS,ioos:station:USF.COMPS:ANC:1,2008-12-01T11:12:00Z,28.1930,-82.7890,-0.183,1111122 
COMPS,ioos:station:USF.COMPS:ANC:1,2008-12-01T11:18:00Z,28.1930,-82.7890,-0.201,1111122 
COMPS,ioos:station:USF.COMPS:ANC:1,2008-12-01T11:24:00Z,28.1930,-82.7890,-0.216,1111122 
COMPS,ioos:station:USF.COMPS:ANC:1,2008-12-01T11:30:00Z,28.1930,-82.7890,-0.247,1111122 
COMPS,ioos:station:USF.COMPS:ANC:1,2008-12-01T11:36:00Z,28.1930,-82.7890,-0.292,1111122 
COMPS,ioos:station:USF.COMPS:ANC:1,2008-12-01T11:42:00Z,28.1930,-82.7890,-0.327,1111122 
COMPS,ioos:station:USF.COMPS:ANC:1,2008-12-01T11:48:00Z,28.1930,-82.7890,-0.351,1111122 
COMPS,ioos:station:USF.COMPS:ANC:1,2008-12-01T11:54:00Z,28.1930,-82.7890,-0.375,1111122 
COMPS,ioos:station:USF.COMPS:ANC:1,2008-12-01T12:00:00Z,28.1930,-82.7890,-0.403,1111122 
COMPS,ioos:station:USF.COMPS:ANC:1,2008-12-01T12:06:00Z,28.1930,-82.7890,-0.431,1111122 
COMPS,ioos:station:USF.COMPS:ANC:1,2008-12-01T12:12:00Z,28.1930,-82.7890,-0.458,1111122 
COMPS,ioos:station:USF.COMPS:ANC:1,2008-12-01T12:18:00Z,28.1930,-82.7890,-0.481,1111122 
COMPS,ioos:station:USF.COMPS:ANC:1,2008-12-01T12:24:00Z,28.1930,-82.7890,-0.509,1111122 
COMPS,ioos:station:USF.COMPS:ANC:1,2008-12-01T12:30:00Z,28.1930,-82.7890,-0.539,1111122 
COMPS,ioos:station:USF.COMPS:ANC:1,2008-12-01T12:36:00Z,28.1930,-82.7890,-0.558,1111122 
COMPS,ioos:station:USF.COMPS:ANC:1,2008-12-01T12:42:00Z,28.1930,-82.7890,-0.58,1111122 
COMPS,ioos:station:USF.COMPS:ANC:1,2008-12-01T12:48:00Z,28.1930,-82.7890,-0.606,1111122 
COMPS,ioos:station:USF.COMPS:ANC:1,2008-12-01T12:54:00Z,28.1930,-82.7890,-0.629,1111122 
COMPS,ioos:station:USF.COMPS:ANC:1,2008-12-01T13:00:00Z,28.1930,-82.7890,-0.651,1111122 
COMPS,ioos:station:USF.COMPS:ANC:1,2008-12-01T13:06:00Z,28.1930,-82.7890,-0.677,1111122 
COMPS,ioos:station:USF.COMPS:ANC:1,2008-12-01T13:12:00Z,28.1930,-82.7890,-0.698,1111122 
COMPS,ioos:station:USF.COMPS:ANC:1,2008-12-01T13:18:00Z,28.1930,-82.7890,-0.693,1111122 
COMPS,ioos:station:USF.COMPS:ANC:1,2008-12-01T13:24:00Z,28.1930,-82.7890,-0.694,1111122 
COMPS,ioos:station:USF.COMPS:ANC:1,2008-12-01T13:30:00Z,28.1930,-82.7890,-0.696,1111122 
COMPS,ioos:station:USF.COMPS:ANC:1,2008-12-01T13:36:00Z,28.1930,-82.7890,-0.697,1111122 
COMPS,ioos:station:USF.COMPS:ANC:1,2008-12-01T13:42:00Z,28.1930,-82.7890,-0.699,1111122 
COMPS,ioos:station:USF.COMPS:ANC:1,2008-12-01T13:48:00Z,28.1930,-82.7890,-0.7,1111122 
COMPS,ioos:station:USF.COMPS:ANC:1,2008-12-01T13:54:00Z,28.1930,-82.7890,-0.701,1111122 
COMPS,ioos:station:USF.COMPS:ANC:1,2008-12-01T14:00:00Z,28.1930,-82.7890,-0.7,1111122 
COMPS,ioos:station:USF.COMPS:ANC:1,2008-12-01T14:06:00Z,28.1930,-82.7890,-0.698,1111122 
COMPS,ioos:station:USF.COMPS:ANC:1,2008-12-01T14:12:00Z,28.1930,-82.7890,-0.697,1111122 
COMPS,ioos:station:USF.COMPS:ANC:1,2008-12-01T14:18:00Z,28.1930,-82.7890,-0.696,1111122 
COMPS,ioos:station:USF.COMPS:ANC:1,2008-12-01T14:24:00Z,28.1930,-82.7890,-0.695,1111122 
COMPS,ioos:station:USF.COMPS:ANC:1,2008-12-01T14:30:00Z,28.1930,-82.7890,-0.695,1111122 
COMPS,ioos:station:USF.COMPS:ANC:1,2008-12-01T14:36:00Z,28.1930,-82.7890,-0.698,1111122 
COMPS,ioos:station:USF.COMPS:ANC:1,2008-12-01T14:42:00Z,28.1930,-82.7890,-0.682,1111122 
COMPS,ioos:station:USF.COMPS:ANC:1,2008-12-01T14:48:00Z,28.1930,-82.7890,-0.659,1111122 
COMPS,ioos:station:USF.COMPS:ANC:1,2008-12-01T14:54:00Z,28.1930,-82.7890,-0.64,1111122 
COMPS,ioos:station:USF.COMPS:ANC:1,2008-12-01T15:00:00Z,28.1930,-82.7890,-0.621,1111122 
COMPS,ioos:station:USF.COMPS:ANC:1,2008-12-01T15:06:00Z,28.1930,-82.7890,-0.598,1111122 
COMPS,ioos:station:USF.COMPS:ANC:1,2008-12-01T15:12:00Z,28.1930,-82.7890,-0.579,1111122 
COMPS,ioos:station:USF.COMPS:ANC:1,2008-12-01T15:18:00Z,28.1930,-82.7890,-0.565,1111122 
COMPS,ioos:station:USF.COMPS:ANC:1,2008-12-01T15:24:00Z,28.1930,-82.7890,-0.549,1111122 
COMPS,ioos:station:USF.COMPS:ANC:1,2008-12-01T15:30:00Z,28.1930,-82.7890,-0.522,1111122 
COMPS,ioos:station:USF.COMPS:ANC:1,2008-12-01T15:36:00Z,28.1930,-82.7890,-0.492,1111122 
COMPS,ioos:station:USF.COMPS:ANC:1,2008-12-01T15:42:00Z,28.1930,-82.7890,-0.457,1111122 
COMPS,ioos:station:USF.COMPS:ANC:1,2008-12-01T15:48:00Z,28.1930,-82.7890,-0.423,1111122 
COMPS,ioos:station:USF.COMPS:ANC:1,2008-12-01T15:54:00Z,28.1930,-82.7890,-0.399,1111122 
COMPS,ioos:station:USF.COMPS:ANC:1,2008-12-01T16:00:00Z,28.1930,-82.7890,-0.375,1111122 
COMPS,ioos:station:USF.COMPS:ANC:1,2008-12-01T16:06:00Z,28.1930,-82.7890,-0.347,1111122 
COMPS,ioos:station:USF.COMPS:ANC:1,2008-12-01T16:12:00Z,28.1930,-82.7890,-0.321,1111122 
COMPS,ioos:station:USF.COMPS:ANC:1,2008-12-01T16:18:00Z,28.1930,-82.7890,-0.294,1111122 
COMPS,ioos:station:USF.COMPS:ANC:1,2008-12-01T16:24:00Z,28.1930,-82.7890,-0.274,1111122 
COMPS,ioos:station:USF.COMPS:ANC:1,2008-12-01T16:30:00Z,28.1930,-82.7890,-0.252,1111122 
COMPS,ioos:station:USF.COMPS:ANC:1,2008-12-01T16:36:00Z,28.1930,-82.7890,-0.231,1111122 
COMPS,ioos:station:USF.COMPS:ANC:1,2008-12-01T16:42:00Z,28.1930,-82.7890,-0.216,1111122 
COMPS,ioos:station:USF.COMPS:ANC:1,2008-12-01T16:48:00Z,28.1930,-82.7890,-0.196,1111122 
COMPS,ioos:station:USF.COMPS:ANC:1,2008-12-01T16:54:00Z,28.1930,-82.7890,-0.171,1111122 
COMPS,ioos:station:USF.COMPS:ANC:1,2008-12-01T17:00:00Z,28.1930,-82.7890,-0.164,1111122 
COMPS,ioos:station:USF.COMPS:ANC:1,2008-12-01T17:06:00Z,28.1930,-82.7890,-0.148,1111122 
COMPS,ioos:station:USF.COMPS:ANC:1,2008-12-01T17:12:00Z,28.1930,-82.7890,-0.127,1111122 
COMPS,ioos:station:USF.COMPS:ANC:1,2008-12-01T17:18:00Z,28.1930,-82.7890,-0.096,1111122 
COMPS,ioos:station:USF.COMPS:ANC:1,2008-12-01T17:24:00Z,28.1930,-82.7890,-0.086,1111122 
COMPS,ioos:station:USF.COMPS:ANC:1,2008-12-01T17:30:00Z,28.1930,-82.7890,-0.099,1111122 
COMPS,ioos:station:USF.COMPS:ANC:1,2008-12-01T17:36:00Z,28.1930,-82.7890,-0.095,1111122 
COMPS,ioos:station:USF.COMPS:ANC:1,2008-12-01T17:42:00Z,28.1930,-82.7890,-0.074,1111122 
COMPS,ioos:station:USF.COMPS:ANC:1,2008-12-01T17:48:00Z,28.1930,-82.7890,-0.066,1111122 
COMPS,ioos:station:USF.COMPS:ANC:1,2008-12-01T17:54:00Z,28.1930,-82.7890,-0.057,1111122 
COMPS,ioos:station:USF.COMPS:ANC:1,2008-12-01T18:00:00Z,28.1930,-82.7890,-0.025,1111122 
COMPS,ioos:station:USF.COMPS:ANC:1,2008-12-01T18:06:00Z,28.1930,-82.7890,0.002,1111122 
COMPS,ioos:station:USF.COMPS:ANC:1,2008-12-01T18:12:00Z,28.1930,-82.7890,0.011,1111122 
COMPS,ioos:station:USF.COMPS:ANC:1,2008-12-01T18:18:00Z,28.1930,-82.7890,0.018,1111122 
COMPS,ioos:station:USF.COMPS:ANC:1,2008-12-01T18:24:00Z,28.1930,-82.7890,0.031,1111122 
COMPS,ioos:station:USF.COMPS:ANC:1,2008-12-01T18:30:00Z,28.1930,-82.7890,0.041,1111122 
COMPS,ioos:station:USF.COMPS:ANC:1,2008-12-01T18:36:00Z,28.1930,-82.7890,0.067,1111122 
COMPS,ioos:station:USF.COMPS:ANC:1,2008-12-01T18:42:00Z,28.1930,-82.7890,0.085,1111122 
COMPS,ioos:station:USF.COMPS:ANC:1,2008-12-01T18:48:00Z,28.1930,-82.7890,0.081,1111122 
COMPS,ioos:station:USF.COMPS:ANC:1,2008-12-01T18:54:00Z,28.1930,-82.7890,0.077,1111122 
COMPS,ioos:station:USF.COMPS:ANC:1,2008-12-01T19:00:00Z,28.1930,-82.7890,0.077,1111122 
COMPS,ioos:station:USF.COMPS:ANC:1,2008-12-01T19:06:00Z,28.1930,-82.7890,0.075,1111122 
COMPS,ioos:station:USF.COMPS:ANC:1,2008-12-01T19:12:00Z,28.1930,-82.7890,0.063,1111122 
COMPS,ioos:station:USF.COMPS:ANC:1,2008-12-01T19:18:00Z,28.1930,-82.7890,0.042,1111122 
COMPS,ioos:station:USF.COMPS:ANC:1,2008-12-01T19:24:00Z,28.1930,-82.7890,0.02,1111122 
COMPS,ioos:station:USF.COMPS:ANC:1,2008-12-01T19:30:00Z,28.1930,-82.7890,-0.008,1111122 
COMPS,ioos:station:USF.COMPS:ANC:1,2008-12-01T19:36:00Z,28.1930,-82.7890,-0.038,1111122 
COMPS,ioos:station:USF.COMPS:ANC:1,2008-12-01T19:42:00Z,28.1930,-82.7890,-0.059,1111122 
COMPS,ioos:station:USF.COMPS:ANC:1,2008-12-01T19:48:00Z,28.1930,-82.7890,-0.076,1111122 
COMPS,ioos:station:USF.COMPS:ANC:1,2008-12-01T19:54:00Z,28.1930,-82.7890,-0.097,1111122 
COMPS,ioos:station:USF.COMPS:ANC:1,2008-12-01T20:00:00Z,28.1930,-82.7890,-0.118,1111122 
COMPS,ioos:station:USF.COMPS:ANC:1,2008-12-01T20:06:00Z,28.1930,-82.7890,-0.126,1111122 
COMPS,ioos:station:USF.COMPS:ANC:1,2008-12-01T20:12:00Z,28.1930,-82.7890,-0.135,1111122 
COMPS,ioos:station:USF.COMPS:ANC:1,2008-12-01T20:18:00Z,28.1930,-82.7890,-0.153,1111122 
COMPS,ioos:station:USF.COMPS:ANC:1,2008-12-01T20:24:00Z,28.1930,-82.7890,-0.168,1111122 
COMPS,ioos:station:USF.COMPS:ANC:1,2008-12-01T20:30:00Z,28.1930,-82.7890,-0.177,1111122 
COMPS,ioos:station:USF.COMPS:ANC:1,2008-12-01T20:36:00Z,28.1930,-82.7890,-0.181,1111122 
COMPS,ioos:station:USF.COMPS:ANC:1,2008-12-01T20:42:00Z,28.1930,-82.7890,-0.189,1111122 
COMPS,ioos:station:USF.COMPS:ANC:1,2008-12-01T20:48:00Z,28.1930,-82.7890,-0.197,1111122 
COMPS,ioos:station:USF.COMPS:ANC:1,2008-12-01T20:54:00Z,28.1930,-82.7890,-0.199,1111122 
COMPS,ioos:station:USF.COMPS:ANC:1,2008-12-01T21:00:00Z,28.1930,-82.7890,-0.194,1111122 
COMPS,ioos:station:USF.COMPS:ANC:1,2008-12-01T21:06:00Z,28.1930,-82.7890,-0.197,1111122 
COMPS,ioos:station:USF.COMPS:ANC:1,2008-12-01T21:12:00Z,28.1930,-82.7890,-0.198,1111122 
COMPS,ioos:station:USF.COMPS:ANC:1,2008-12-01T21:18:00Z,28.1930,-82.7890,-0.2,1111122 
COMPS,ioos:station:USF.COMPS:ANC:1,2008-12-01T21:24:00Z,28.1930,-82.7890,-0.19,1111122 
COMPS,ioos:station:USF.COMPS:ANC:1,2008-12-01T21:30:00Z,28.1930,-82.7890,-0.187,1111122 
COMPS,ioos:station:USF.COMPS:ANC:1,2008-12-01T21:36:00Z,28.1930,-82.7890,-0.197,1111122 
COMPS,ioos:station:USF.COMPS:ANC:1,2008-12-01T21:42:00Z,28.1930,-82.7890,-0.2,1111122 
COMPS,ioos:station:USF.COMPS:ANC:1,2008-12-01T21:48:00Z,28.1930,-82.7890,-0.209,1111122 
COMPS,ioos:station:USF.COMPS:ANC:1,2008-12-01T21:54:00Z,28.1930,-82.7890,-0.213,1111122 
COMPS,ioos:station:USF.COMPS:ANC:1,2008-12-01T22:00:00Z,28.1930,-82.7890,-0.211,1111122 
COMPS,ioos:station:USF.COMPS:ANC:1,2008-12-01T22:06:00Z,28.1930,-82.7890,-0.209,1111122 
COMPS,ioos:station:USF.COMPS:ANC:1,2008-12-01T22:12:00Z,28.1930,-82.7890,-0.215,1111122 
COMPS,ioos:station:USF.COMPS:ANC:1,2008-12-01T22:18:00Z,28.1930,-82.7890,-0.221,1111122 
COMPS,ioos:station:USF.COMPS:ANC:1,2008-12-01T22:24:00Z,28.1930,-82.7890,-0.229,1111122 
COMPS,ioos:station:USF.COMPS:ANC:1,2008-12-01T22:30:00Z,28.1930,-82.7890,-0.241,1111122 
COMPS,ioos:station:USF.COMPS:ANC:1,2008-12-01T22:36:00Z,28.1930,-82.7890,-0.248,1111122 
COMPS,ioos:station:USF.COMPS:ANC:1,2008-12-01T22:42:00Z,28.1930,-82.7890,-0.247,1111122 
COMPS,ioos:station:USF.COMPS:ANC:1,2008-12-01T22:48:00Z,28.1930,-82.7890,-0.255,1111122 
COMPS,ioos:station:USF.COMPS:ANC:1,2008-12-01T22:54:00Z,28.1930,-82.7890,-0.266,1111122 
COMPS,ioos:station:USF.COMPS:ANC:1,2008-12-01T23:00:00Z,28.1930,-82.7890,-0.268,1111122 
COMPS,ioos:station:USF.COMPS:ANC:1,2008-12-01T23:06:00Z,28.1930,-82.7890,-0.269,1111122 
COMPS,ioos:station:USF.COMPS:ANC:1,2008-12-01T23:12:00Z,28.1930,-82.7890,-0.277,1111122 
COMPS,ioos:station:USF.COMPS:ANC:1,2008-12-01T23:18:00Z,28.1930,-82.7890,-0.282,1111122 
COMPS,ioos:station:USF.COMPS:ANC:1,2008-12-01T23:24:00Z,28.1930,-82.7890,-0.284,1111122 
COMPS,ioos:station:USF.COMPS:ANC:1,2008-12-01T23:30:00Z,28.1930,-82.7890,-0.28,1111122 
COMPS,ioos:station:USF.COMPS:ANC:1,2008-12-01T23:36:00Z,28.1930,-82.7890,-0.272,1111122 
COMPS,ioos:station:USF.COMPS:ANC:1,2008-12-01T23:42:00Z,28.1930,-82.7890,-0.272,1111122 
COMPS,ioos:station:USF.COMPS:ANC:1,2008-12-01T23:48:00Z,28.1930,-82.7890,-0.277,1111122 
COMPS,ioos:station:USF.COMPS:ANC:1,2008-12-01T23:54:00Z,28.1930,-82.7890,-0.278,1111122 
COMPS,ioos:station:USF.COMPS:ANC:1,2008-12-02T01:00:00Z,28.1930,-82.7890,-0.258,1111122 
COMPS,ioos:station:USF.COMPS:ANC:1,2008-12-02T01:06:00Z,28.1930,-82.7890,-0.251,1111122 
COMPS,ioos:station:USF.COMPS:ANC:1,2008-12-02T01:12:00Z,28.1930,-82.7890,-0.236,1111122 
COMPS,ioos:station:USF.COMPS:ANC:1,2008-12-02T01:18:00Z,28.1930,-82.7890,-0.229,1111122 
COMPS,ioos:station:USF.COMPS:ANC:1,2008-12-02T01:24:00Z,28.1930,-82.7890,-0.22,1111122 
COMPS,ioos:station:USF.COMPS:ANC:1,2008-12-02T01:30:00Z,28.1930,-82.7890,-0.207,1111122 
COMPS,ioos:station:USF.COMPS:ANC:1,2008-12-02T01:36:00Z,28.1930,-82.7890,-0.188,1111122 
COMPS,ioos:station:USF.COMPS:ANC:1,2008-12-02T01:42:00Z,28.1930,-82.7890,-0.173,1111122 
COMPS,ioos:station:USF.COMPS:ANC:1,2008-12-02T01:48:00Z,28.1930,-82.7890,-0.159,1111122 
COMPS,ioos:station:USF.COMPS:ANC:1,2008-12-02T01:54:00Z,28.1930,-82.7890,-0.145,1111122 
COMPS,ioos:station:USF.COMPS:ANC:1,2008-12-02T02:00:00Z,28.1930,-82.7890,-0.144,1111122 
COMPS,ioos:station:USF.COMPS:ANC:1,2008-12-02T02:06:00Z,28.1930,-82.7890,-0.14,1111122 
COMPS,ioos:station:USF.COMPS:ANC:1,2008-12-02T02:12:00Z,28.1930,-82.7890,-0.14,1111122 
COMPS,ioos:station:USF.COMPS:ANC:1,2008-12-02T02:18:00Z,28.1930,-82.7890,-0.124,1111122 
COMPS,ioos:station:USF.COMPS:ANC:1,2008-12-02T02:24:00Z,28.1930,-82.7890,-0.095,1111122 
COMPS,ioos:station:USF.COMPS:ANC:1,2008-12-02T02:30:00Z,28.1930,-82.7890,-0.086,1111122 
COMPS,ioos:station:USF.COMPS:ANC:1,2008-12-02T02:36:00Z,28.1930,-82.7890,-0.086,1111122 
COMPS,ioos:station:USF.COMPS:ANC:1,2008-12-02T02:42:00Z,28.1930,-82.7890,-0.081,1111122 
COMPS,ioos:station:USF.COMPS:ANC:1,2008-12-02T02:48:00Z,28.1930,-82.7890,-0.062,1111122 
COMPS,ioos:station:USF.COMPS:ANC:1,2008-12-02T02:54:00Z,28.1930,-82.7890,-0.047,1111122 
COMPS,ioos:station:USF.COMPS:ANC:1,2008-12-02T03:00:00Z,28.1930,-82.7890,-0.032,1111122 
COMPS,ioos:station:USF.COMPS:ANC:1,2008-12-02T03:06:00Z,28.1930,-82.7890,-0.003,1111122 
COMPS,ioos:station:USF.COMPS:ANC:1,2008-12-02T03:12:00Z,28.1930,-82.7890,0.02,1111122 
COMPS,ioos:station:USF.COMPS:ANC:1,2008-12-02T03:18:00Z,28.1930,-82.7890,0.036,1111122 
COMPS,ioos:station:USF.COMPS:ANC:1,2008-12-02T03:24:00Z,28.1930,-82.7890,0.046,1111122 
COMPS,ioos:station:USF.COMPS:ANC:1,2008-12-02T03:30:00Z,28.1930,-82.7890,0.075,1111122 
COMPS,ioos:station:USF.COMPS:ANC:1,2008-12-02T03:36:00Z,28.1930,-82.7890,0.118,1111122 
COMPS,ioos:station:USF.COMPS:ANC:1,2008-12-02T03:42:00Z,28.1930,-82.7890,0.166,1111122 
COMPS,ioos:station:USF.COMPS:ANC:1,2008-12-02T03:48:00Z,28.1930,-82.7890,0.26,1111122 
COMPS,ioos:station:USF.COMPS:ANC:1,2008-12-02T03:54:00Z,28.1930,-82.7890,0.291,1111122 